DW7783 Albolote (Granada) ES current weather conditions

sailwx.info

Wind from 021 at 6 knots

Air temperature 21.1° C
Dewpoint 8.0° C

Last reported at 2018-Apr-20 13:53 UTC.
Time now 2018-Apr-20 14:42 UTC

Location: N 37°19' W 003°39'.
View on Google Maps.

See reports from other nearby stations

  
Tides and Currents Weather Stations Pressure Air Temp Water Temp Dewpoint Dewpoint Depression Visibility Wind Speed Wind Dir Waves Ship Positions
date/time (UTC)wind fromknots sea level pressurealtimeterstation pressurevisibilityair tempwater tempwave heightnotes
2018-Apr-20 14:23 054 7 21.1
2018-Apr-20 14:08 042 8 20.6
2018-Apr-20 13:53 021 6 21.1
2018-Apr-20 13:38 023 7 21.1
2018-Apr-20 13:23 054 6 20.6
2018-Apr-20 13:08 035 7 20.6
2018-Apr-20 12:53 044 6 20.0
2018-Apr-20 12:38 089 6 20.0
2018-Apr-20 12:23 046 7 20.0
2018-Apr-20 12:08 033 8 19.4
2018-Apr-20 11:53 007 8 18.9
2018-Apr-20 11:38 029 6 19.4
2018-Apr-20 11:23 030 7 18.9
2018-Apr-20 11:08 058 9 18.3
2018-Apr-20 10:53 065 7 18.3
2018-Apr-20 10:38 031 8 17.8
2018-Apr-20 10:23 054 8 16.7
2018-Apr-20 10:08 053 8 17.2
2018-Apr-20 09:52 034 7 16.7
2018-Apr-20 09:38 027 6 16.1
2018-Apr-20 09:22 058 7 15.6
2018-Apr-20 09:07 065 6 15.6
2018-Apr-20 08:52 054 7 15.0
2018-Apr-20 08:37 065 7 14.4
2018-Apr-20 08:22 056 6 14.4
2018-Apr-20 08:07 048 6 13.9
2018-Apr-20 07:52 059 6 13.9
2018-Apr-20 07:37 052 6 13.3
2018-Apr-20 07:22 065 6 12.8
2018-Apr-20 07:07 047 5 12.2
2018-Apr-20 06:52 053 4 12.2
2018-Apr-20 06:37 051 3 11.7
2018-Apr-20 06:22 052 1 11.1
2018-Apr-20 06:07 075 1 10.6
2018-Apr-20 05:52 094 2 10.0
2018-Apr-20 05:37 002 2 10.0
2018-Apr-20 05:22 037 4 10.6
2018-Apr-20 05:07 048 5 10.6
2018-Apr-20 04:52 090 5 10.6
2018-Apr-20 04:37 087 3 10.0
2018-Apr-20 04:22 065 2 10.0
2018-Apr-20 04:07 059 2 10.0
2018-Apr-20 03:52 063 1 10.0
2018-Apr-20 03:36 057 1 10.0
2018-Apr-20 03:21 058 2 10.6
2018-Apr-20 03:06 050 2 10.6
2018-Apr-20 02:51 061 2 10.6
2018-Apr-20 02:36 048 1 11.1
2018-Apr-20 02:21 063 1 11.1
2018-Apr-20 02:06 060 1 11.7
2018-Apr-20 01:51 060 2 11.7
2018-Apr-20 01:36 067 2 12.2
2018-Apr-20 01:21 055 2 12.2
2018-Apr-20 01:06 045 2 12.2
2018-Apr-20 00:51 056 1 12.2
2018-Apr-20 00:36 050 2 12.2
2018-Apr-20 00:21 040 2 12.8
2018-Apr-20 00:06 055 1 12.8
2018-Apr-19 23:51 044 0 12.8
2018-Apr-19 23:36 061 1 12.8
2018-Apr-19 23:21 063 1 12.8
2018-Apr-19 23:06 060 0 13.3
2018-Apr-19 22:51 048 1 13.3
2018-Apr-19 22:36 058 1 13.9
2018-Apr-19 22:21 052 2 13.9
2018-Apr-19 22:06 058 3 13.9
2018-Apr-19 21:51 068 2 13.9
2018-Apr-19 21:36 067 2 13.9
2018-Apr-19 21:21 057 3 14.4
2018-Apr-19 21:06 062 3 15.0
2018-Apr-19 20:51 051 3 15.0
2018-Apr-19 20:36 058 3 15.0
2018-Apr-19 20:21 059 4 15.6
2018-Apr-19 20:06 156 2 16.1
2018-Apr-19 19:51 214 1 15.6
2018-Apr-19 19:36 210 0 16.1
2018-Apr-19 19:21 210 16.1
2018-Apr-19 19:06 210 16.7
2018-Apr-19 18:51 210 1 17.8
2018-Apr-19 18:36 210 3 18.9
2018-Apr-19 18:21 210 3 19.4
2018-Apr-19 18:06 211 4 20.6
2018-Apr-19 17:51 214 4 21.1
2018-Apr-19 17:36 216 5 21.1
2018-Apr-19 17:21 230 4 21.1
2018-Apr-19 17:06 223 4 21.7
2018-Apr-19 16:51 218 5 22.2
2018-Apr-19 16:36 212 5 22.8
2018-Apr-19 16:21 210 5 22.8
2018-Apr-19 16:06 206 5 23.3
2018-Apr-19 15:51 199 4 22.8
2018-Apr-19 15:36 209 5 23.3
2018-Apr-19 15:20 208 5 23.3
2018-Apr-19 15:05 185 5 23.9
2018-Apr-19 14:50 176 4 23.3
2018-Apr-19 14:35 179 6 23.3
2018-Apr-19 14:20 212 4 24.4
2018-Apr-19 14:05 231 4 24.4
2018-Apr-19 13:50 235 3 23.9
2018-Apr-19 13:35 233 4 23.3
2018-Apr-19 13:20 246 4 23.3
2018-Apr-19 13:05 271 4 23.3
2018-Apr-19 12:50 333 3 23.3
2018-Apr-19 12:35 357 1 23.3
2018-Apr-19 12:20 007 3 22.8
2018-Apr-19 12:05 028 3 22.8
2018-Apr-19 11:50 028 2 22.8
2018-Apr-19 11:35 034 3 22.2
2018-Apr-19 11:20 031 2 22.2
2018-Apr-19 11:05 048 3 21.7
2018-Apr-19 10:50 042 3 21.1
2018-Apr-19 10:35 034 3 21.1
2018-Apr-19 10:20 031 2 20.6
2018-Apr-19 10:05 023 2 20.0
2018-Apr-19 09:50 012 2 20.0
2018-Apr-19 09:35 339 3 19.4
2018-Apr-19 09:20 310 3 18.3
2018-Apr-19 09:05 274 1 17.8
2018-Apr-19 08:50 274 1 17.8
2018-Apr-19 08:34 274 2 16.7
2018-Apr-19 08:19 274 1 16.1
2018-Apr-19 08:04 274 3 14.4
2018-Apr-19 07:49 268 2 13.3
2018-Apr-19 07:34 266 3 12.2
2018-Apr-19 07:19 249 2 11.7
2018-Apr-19 07:04 243 0 10.6
2018-Apr-19 06:49 242 0 10.0
2018-Apr-19 06:34 243 8.9
2018-Apr-19 06:19 243 8.3
2018-Apr-19 06:04 242 0 8.9
2018-Apr-19 05:49 242 0 8.3
2018-Apr-19 05:34 242 0 8.3
2018-Apr-19 05:19 242 0 8.3
2018-Apr-19 05:04 242 0 7.8
2018-Apr-19 04:49 242 0 7.8
2018-Apr-19 04:34 242 1 8.3
2018-Apr-19 04:19 241 1 8.9
2018-Apr-19 04:03 238 1 9.4
2018-Apr-19 03:48 233 1 8.9
2018-Apr-19 03:33 233 1 9.4
2018-Apr-19 03:18 232 2 9.4
2018-Apr-19 03:03 230 1 9.4
2018-Apr-19 02:48 230 9.4
2018-Apr-19 02:33 230 9.4
2018-Apr-19 02:18 230 9.4
2018-Apr-19 02:03 230 10.0
2018-Apr-19 01:48 230 10.0
2018-Apr-19 01:33 230 10.6
2018-Apr-19 01:18 230 10.6
2018-Apr-19 01:03 230 10.6
2018-Apr-19 00:48 230 10.6
2018-Apr-19 00:33 230 11.1
2018-Apr-19 00:18 230 11.1
2018-Apr-19 00:03 230 11.7
2018-Apr-18 23:48 230 11.7
2018-Apr-18 23:33 230 11.1
2018-Apr-18 23:18 230 11.7
2018-Apr-18 23:03 230 12.2
2018-Apr-18 22:48 230 1 12.2
2018-Apr-18 22:33 230 12.2
2018-Apr-18 22:18 230 0 12.2
2018-Apr-18 22:03 230 2 12.2
2018-Apr-18 21:48 230 1 12.8
2018-Apr-18 21:33 230 2 12.8
2018-Apr-18 21:18 230 0 13.3
2018-Apr-18 21:03 230 1 13.9
2018-Apr-18 20:48 230 1 14.4
2018-Apr-18 20:33 230 14.4
2018-Apr-18 20:18 230 1 15.0
2018-Apr-18 20:03 230 1 15.6
2018-Apr-18 19:48 230 1 16.1
2018-Apr-18 19:33 229 0 16.1
2018-Apr-18 19:18 229 1 16.7
2018-Apr-18 19:03 229 3 17.2
2018-Apr-18 18:48 227 3 17.8
2018-Apr-18 18:34 226 4 18.9
2018-Apr-18 18:18 221 3 20.0
2018-Apr-18 18:03 221 4 21.1
2018-Apr-18 17:48 219 5 21.7
2018-Apr-18 17:33 212 4 22.2
2018-Apr-18 17:18 209 4 22.2
2018-Apr-18 17:03 194 6 22.8
2018-Apr-18 16:48 194 4 22.8
2018-Apr-18 16:33 195 5 23.3
2018-Apr-18 16:18 198 5 23.9
2018-Apr-18 16:03 207 5 24.4
2018-Apr-18 15:48 215 5 24.4
2018-Apr-18 15:33 217 5 24.4
2018-Apr-18 15:17 223 5 24.4
2018-Apr-18 15:03 252 4 25.0
2018-Apr-18 14:48 264 5 24.4
2018-Apr-18 14:32 269 3 25.0
2018-Apr-18 14:17 271 5 24.4
2018-Apr-18 14:02 277 3 24.4